RH
35 32 33 36 37 34 36 41 45 79 70 59 41 38 47 38 47 57 60 67 76 73 54 44 30 24 24 27 28 27 26 26 25 26 33 39 42 44 45 45 46 42 37 36
33 32 34 33 32 32 36 44 98 83 72 73 47 37 33 32 36 46 53 60 49 36 32 29 29 28 30 31 38 40 38 37 43 47 51 55 56 56 55 52 48 42 39 37
42 33 35 33 33 32 33 40 78 92 82 70 68 47 32 36 38 40 43 38 33 33 34 35 36 37 42 45 46 50 50 49 61 62 63 59 51 48 48 46 44 39 36 33
32 33 35 66 47 44 42 62 95 100 99 82 64 57 38 38 39 40 39 40 36 35 36 37 45 54 52 55 56 61 63 72 70 61 60 58 56 50 46 43 38 38 35 31
28 31 29 48 100 100 73 76 100 100 100 100 99 62 63 50 50 46 44 48 41 34 35 35 39 45 52 59 62 70 71 66 65 59 58 52 45 44 40 40 35 32 28 27
28 32 38 36 70 100 100 100 100 100 100 100 100 84 84 100 86 59 50 48 39 38 38 42 52 60 66 70 69 70 66 59 57 56 47 41 39 38 38 36 30 26 24 24
23 28 31 46 46 48 77 100 100 100 100 100 100 100 100 100 100 59 38 39 52 72 81 77 69 72 71 72 69 63 59 52 46 37 34 35 37 36 35 29 24 23 22 21
31 35 38 38 35 43 51 39 39 35 43 68 100 70 84 60 46 50 72 86 89 89 79 72 74 86 76 71 68 61 52 38 36 36 37 38 37 32 25 22 22 20 21 48
36 39 39 39 42 42 41 45 49 54 61 69 79 86 87 91 91 98 100 95 90 89 90 93 93 74 76 75 61 47 42 38 37 39 39 34 28 23 23 19 25 51 75 81
31 33 36 40 44 45 48 50 52 47 43 46 64 89 99 87 87 87 83 74 71 70 76 70 64 60 55 46 39 40 43 44 44 36 29 25 23 22 34 58 85 88 86 84
39 39 40 43 47 50 55 50 47 46 46 46 53 70 91 72 59 54 48 43 41 39 39 41 41 43 42 41 48 50 43 38 33 28 25 29 42 69 96 91 85 78 88 77
44 42 41 41 44 46 46 45 45 47 46 44 42 55 47 45 44 40 38 39 39 39 40 42 45 49 52 49 45 46 39 31 26 34 78 77 100 90 88 95 94 85 76 74
52 51 52 49 46 46 46 46 46 46 46 45 42 42 43 47 51 52 50 45 39 36 38 36 40 35 40 39 36 34 28 27 56 90 99 98 93 100 99 94 79 79 77 68
44 50 52 54 57 58 57 56 56 58 58 56 54 52 55 53 49 42 37 34 23 19 15 15 17 19 25 26 30 49 56 96 97 100 100 96 87 89 82 77 81 76 72 72
40 37 32 26 24 25 25 26 27 28 25 25 22 21 21 21 20 20 24 28 33 29 26 25 36 53 55 73 100 95 86 92 100 83 88 82 93 76 77 91 76 71 78 68
31 32 35 42 44 45 45 43 43 44 46 42 48 54 56 56 63 71 76 78 70 70 100 94 89 86 98 100 100 88 96 91 100 100 99 72 71 74 90 92 71 76 71 67
38 36 33 32 30 33 38 44 48 52 55 57 60 63 62 62 62 64 60 62 77 88 85 91 99 92 85 91 86 99 100 93 100 100 81 72 82 90 89 77 75 72 64 61
46 36 39 45 43 36 32 34 35 39 41 42 42 43 44 46 49 46 49 51 61 66 75 83 76 97 99 86 94 79 88 91 93 91 77 79 84 80 73 81 73 64 59 59
66 60 59 43 48 52 41 40 37 37 38 37 37 38 38 40 44 45 44 43 43 48 48 55 64 72 96 87 93 85 88 96 93 76 76 87 73 74 78 70 62 58 57 59
77 79 85 67 52 55 75 67 54 45 45 44 39 42 42 39 38 35 36 36 40 38 45 44 50 54 64 72 75 76 80 84 80 80 74 69 59 59 58 56 53 52 57 62
79 79 82 94 85 80 83 88 85 66 64 67 55 49 44 45 43 42 40 35 35 38 37 40 49 58 64 66 69 68 66 64 71 53 52 51 49 49 54 52 53 59 61 59
94 84 87 89 84 93 96 94 100 92 86 86 85 66 63 56 49 49 45 42 40 36 35 36 40 43 45 46 47 47 47 52 45 46 46 50 52 53 51 54 59 64 60 70
92 90 98 83 94 95 99 100 80 81 93 100 99 87 83 81 65 58 58 52 51 48 48 39 38 41 41 43 42 40 42 44 50 52 52 48 52 59 69 79 86 95 91 83
98 100 100 100 99 81 98 88 86 98 100 100 100 100 100 100 98 75 67 69 57 55 54 55 51 47 41 45 47 49 48 49 46 48 51 56 58 64 71 77 80 79 69 96
99 97 100 100 100 100 100 100 100 99 100 100 100 100 100 100 100 100 100 86 86 87 69 66 68 72 66 57 50 46 50 54 57 60 67 70 82 85 83 87 100 85 77 82
83 90 99 100 100 100 100 100 100 100 100 100 96 100 100 100 100 100 100 100 100 100 100 98 83 86 81 75 73 74 70 64 68 71 73 74 77 71 72 65 89 97 98 86
Wind_Speed
79 77 73 68 68 69 68 66 66 64 65 60 55 54 55 54 56 59 60 60 59 56 53 51 48 47 47 46 48 50 50 50 49 49 50 51 54 57 59 61 64 67 69 71
77 75 74 74 69 67 65 63 58 64 62 58 51 49 48 48 50 52 51 51 49 45 45 47 48 49 50 51 52 54 54 53 52 54 56 58 61 65 67 70 73 75 77 78
73 76 74 69 68 67 65 61 63 61 61 60 57 52 46 45 47 46 47 47 47 47 48 50 52 52 53 54 56 56 58 59 60 60 63 66 69 72 76 78 79 81 84 86
73 73 70 64 64 65 63 61 61 58 54 55 58 53 51 48 48 48 48 49 51 50 53 53 53 54 56 58 59 60 62 65 66 69 72 73 75 75 75 75 76 80 80 81
69 70 73 72 62 58 59 57 57 55 49 43 47 55 52 53 52 52 52 55 56 57 59 61 60 59 60 64 66 66 68 71 74 77 78 75 71 74 73 78 80 81 81 81
65 70 71 72 67 60 58 56 55 56 55 53 49 56 51 57 58 60 60 62 63 64 64 63 64 65 67 69 72 73 75 74 74 70 68 69 72 76 79 81 79 79 78 77
61 66 69 71 71 69 65 61 60 52 52 52 55 57 56 61 64 68 67 66 65 65 66 69 70 72 74 77 78 75 72 72 69 69 71 74 78 79 80 78 77 73 70 68
53 57 62 66 68 67 67 67 66 69 67 60 61 69 70 74 74 72 67 68 70 73 75 76 77 78 79 77 76 74 72 70 72 75 77 79 80 77 74 68 65 61 53 45
49 52 55 57 59 61 62 64 65 65 66 67 66 66 68 68 68 67 70 73 76 77 78 78 79 78 76 75 73 73 75 76 76 79 80 77 71 67 63 55 45 37 34 36
41 42 46 48 51 55 58 61 62 63 61 63 64 66 70 69 69 70 72 74 74 75 75 74 74 73 72 73 74 75 78 80 80 76 67 65 61 50 38 31 27 28 29 33
33 33 37 42 47 49 52 55 56 57 57 58 59 61 71 68 66 68 69 70 70 70 69 70 72 73 73 74 76 79 78 76 68 63 56 43 32 24 21 21 25 28 32 35
33 31 31 33 38 43 46 48 49 51 52 54 54 57 63 59 61 63 65 67 68 67 67 70 73 76 76 79 82 78 74 63 57 34 26 22 20 21 21 25 27 30 33 33
37 37 35 35 35 37 41 44 47 49 51 57 55 58 58 61 65 68 71 74 73 71 71 69 75 70 71 71 66 60 55 38 24 19 18 17 20 22 26 27 28 30 29 28
19 31 38 40 41 41 45 48 52 55 56 58 60 62 66 67 68 67 64 61 58 54 52 50 52 52 54 49 40 29 23 21 16 17 18 21 24 25 24 26 28 26 27 30
25 17 7 4 12 18 24 28 32 35 37 37 38 37 36 36 35 33 29 27 27 25 25 25 24 22 20 20 20 22 18 18 18 19 19 22 21 24 25 25 24 25 29 29
36 33 25 18 15 14 11 7 4 3 3 5 5 4 5 5 6 8 9 11 14 13 12 13 15 18 17 21 22 20 15 16 19 24 26 26 27 25 25 24 24 27 28 26
38 35 32 31 28 25 19 14 11 9 8 7 5 6 8 9 11 13 15 15 14 17 20 20 21 18 19 23 20 22 21 22 25 28 30 29 27 27 24 22 25 27 26 17
35 37 31 32 30 28 27 26 23 19 16 14 12 11 12 12 15 17 18 18 20 23 23 24 22 24 23 22 22 21 24 26 29 31 31 29 26 20 20 23 24 21 19 19
26 28 29 31 26 26 26 26 27 27 27 23 20 17 16 14 15 16 17 18 19 19 19 22 24 25 25 24 26 26 26 30 33 35 28 27 21 21 22 23 20 21 19 17
19 20 20 22 26 25 27 24 22 22 24 28 24 22 20 21 22 20 19 19 17 17 15 12 13 17 19 23 27 29 29 29 26 28 21 23 23 22 21 19 18 16 16 16
17 16 14 16 20 22 22 18 16 15 19 25 19 23 26 23 23 22 22 22 20 16 13 11 9 10 14 16 18 19 21 19 22 22 19 19 19 17 16 14 13 13 11 11
21 21 17 14 16 19 26 25 25 23 23 20 23 20 24 27 22 23 25 25 23 21 18 15 13 12 14 15 17 18 18 19 19 17 17 14 11 10 10 11 10 11 12 13
28 30 29 26 24 19 21 30 32 31 31 29 29 30 24 25 26 23 22 22 22 22 22 20 17 14 13 13 14 15 14 14 13 13 11 9 8 10 11 14 16 18 18 20
40 37 38 39 41 33 32 32 33 35 37 37 35 33 34 34 35 29 26 25 23 22 22 24 24 22 19 16 14 13 12 13 14 11 12 12 16 18 19 21 22 23 25 28
46 41 38 43 45 44 49 45 42 40 38 40 44 44 38 38 42 40 34 31 30 29 28 26 25 26 26 24 23 22 21 21 21 20 21 20 21 25 28 30 32 30 28 30
64 60 56 53 56 51 58 54 51 50 50 49 46 48 48 49 48 47 49 44 39 37 38 35 33 35 34 30 30 30 31 32 32 31 31 31 31 29 31 33 35 37 38 37
Wind_Direction
204 208 212 215 220 224 226 230 235 239 241 245 249 252 253 256 258 259 261 263 263 265 264 264 266 268 269 272 275 277 278 280 282 285 287 288 289 289 289 287 288 286 284 283
205 207 212 216 220 225 228 229 233 241 245 245 247 253 255 259 259 258 259 258 258 257 258 261 264 267 272 275 278 281 284 285 287 288 289 290 290 290 290 290 288 287 287 285
206 210 213 218 222 226 228 230 233 239 246 249 248 252 253 253 254 254 254 254 254 256 258 262 267 271 275 278 281 284 287 288 288 290 289 288 289 289 288 288 288 287 286 284
209 213 214 217 223 226 230 230 235 240 247 249 250 250 251 252 255 255 256 257 257 259 262 267 270 273 276 280 282 282 283 286 287 286 286 288 288 288 287 288 288 289 288 287
211 214 219 217 218 226 231 232 235 240 244 246 246 248 255 253 254 256 258 259 262 265 267 268 272 276 277 278 281 283 284 285 287 287 286 288 287 289 289 292 291 289 289 288
214 217 220 223 217 220 227 229 234 239 244 243 245 251 249 256 258 259 258 261 264 266 271 275 275 276 279 281 282 283 285 286 286 286 287 288 289 290 292 292 290 289 290 290
221 222 222 223 229 229 221 223 227 232 242 250 253 252 251 251 255 259 266 271 272 272 272 272 274 277 278 280 282 284 285 286 286 287 288 289 291 293 291 289 289 289 288 289
226 228 229 230 231 231 238 243 243 240 238 239 237 247 247 254 260 264 267 270 271 273 274 276 278 280 283 283 284 285 286 286 286 287 291 293 293 292 291 290 289 287 287 286
227 231 233 234 235 237 238 240 243 247 251 256 260 263 264 266 266 267 268 269 272 273 275 277 279 280 280 282 285 285 286 286 287 290 293 292 290 290 289 287 285 285 287 291
230 232 234 237 240 242 242 245 248 251 254 257 259 261 264 265 267 270 271 272 272 272 272 274 275 277 279 281 282 283 285 288 291 292 290 289 289 288 286 286 287 289 291 297
230 234 237 239 241 242 245 247 251 255 258 260 260 262 263 265 267 269 270 270 271 272 275 276 276 278 278 279 282 286 288 290 288 288 286 282 279 280 282 287 292 294 299 301
237 241 248 250 248 248 249 252 256 259 261 262 261 265 265 270 270 272 274 275 275 275 276 275 276 278 278 281 283 285 285 285 284 272 265 270 271 278 282 291 295 300 306 310
245 249 253 253 254 257 259 260 261 264 265 266 269 267 271 273 274 275 277 277 277 276 276 274 273 273 275 276 277 278 281 272 254 255 264 271 272 277 284 291 296 303 307 312
240 250 255 258 261 263 262 263 265 267 267 268 269 270 271 272 272 273 274 276 279 280 279 275 271 270 269 272 269 262 254 229 244 258 266 270 276 279 288 294 302 305 308 310
69 75 85 224 249 257 260 262 265 266 267 268 269 270 271 274 275 278 280 282 282 282 279 269 261 258 255 246 235 249 241 237 247 257 271 282 277 281 288 304 301 305 308 311
62 63 63 64 68 68 66 63 51 3 317 299 293 286 287 304 306 306 303 309 294 288 268 265 266 260 233 233 243 257 241 241 258 261 274 281 281 285 294 294 295 301 303 308
52 48 50 51 53 50 46 44 45 44 38 25 14 343 331 320 310 301 305 309 295 277 268 259 258 256 256 248 252 244 240 247 263 268 275 278 280 289 290 288 297 301 301 295
30 33 43 39 42 44 48 48 46 40 29 21 11 1 348 332 315 311 302 298 301 295 277 255 253 245 252 248 245 248 250 256 263 267 278 280 284 284 289 294 295 293 294 300
18 18 22 27 25 27 34 36 39 38 35 32 27 18 11 4 351 344 334 325 309 308 290 270 246 237 242 250 250 259 261 262 262 270 275 279 274 281 284 283 282 295 300 304
358 3 3 6 7 4 7 10 13 17 16 18 21 14 8 10 7 3 356 346 335 321 306 286 258 245 245 251 255 259 262 262 267 270 270 272 276 274 275 277 292 304 310 314
324 331 334 341 343 344 342 341 341 343 347 346 352 360 1 356 359 357 357 359 355 345 332 309 284 268 265 267 266 263 265 265 258 268 266 271 279 283 282 292 305 315 321 310
300 303 301 300 308 315 315 316 314 319 320 320 329 324 332 346 337 348 350 351 350 354 358 349 332 313 297 283 272 270 269 259 268 271 275 278 279 280 287 298 305 306 296 301
289 292 289 297 284 279 285 292 300 304 304 306 307 311 302 310 324 316 324 331 335 336 336 335 336 334 328 308 293 287 282 278 275 275 272 270 269 296 294 304 303 301 300 303
284 287 294 292 283 288 277 280 285 288 293 291 290 295 296 297 295 308 298 303 311 311 314 319 318 315 312 309 302 299 287 288 285 274 271 272 280 289 290 293 295 294 298 299
282 286 290 284 279 283 287 286 277 282 276 278 285 287 285 286 288 289 291 285 287 291 294 292 292 295 299 299 294 291 283 280 284 281 279 281 288 289 287 288 292 297 295 299
280 283 286 282 278 280 284 285 283 280 276 273 273 274 277 281 281 282 282 280 282 279 279 281 284 286 284 282 283 284 282 282 281 279 278 278 280 283 286 282 289 289 292 293